Regional Weather Roundup
Issued by NWS

Home | Current Version | Previous Version | Graphics & Text | Print | Product List | Glossary On
Versions: 1 2 3 4 5 6 7 8 9 10 11 12 13 14 15 16 17 18 19 20 21 22 23 24 25 26 27 28 29 30 31 32 33 34 35 36 37 38 39 40 41 42 43 44 45 46 47 48 49 50
251
ASUS43 KLMK 280310
RWRKY
KENTUCKY REGIONAL WEATHER ROUNDUP
NATIONAL WEATHER SERVICE LOUISVILLE KY
1100 PM EDT TUE JUN 27 2017

NOTE "FAIR" INDICATES FEW OR NO CLOUDS BELOW 12,000 FEET
WITH NO SIGNIFICANT WEATHER AND/OR OBSTRUCTIONS TO VISIBILITY.

KYZ001>023-026-027-061>063-070>075-280400-
WESTERN AND SOUTH CENTRAL KENTUCKY

CITY           SKY/WX    TMP DP  RH WIND       PRES   REMARKS
PADUCAH        CLEAR     67  59  75 CALM      30.07R
HENDERSON      PTCLDY    61  57  87 CALM      30.09R
OWENSBORO      CLEAR     70  55  59 CALM      30.10R
HOPKINSVILLE   CLEAR     67  55  64 CALM      30.09R
BOWLING GREEN  CLEAR     67  55  65 CALM      30.10R
GLASGOW        CLEAR     63  56  79 CALM      30.11S
$$

KYZ024-025-028>034-038-045-046-053-280400-
NORTH CENTRAL KENTUCKY

CITY           SKY/WX    TMP DP  RH WIND       PRES   REMARKS
LOUISVILLE/SDF CLEAR     70  49  47 E5        30.11R
LOUISVILLE/LOU CLEAR     68  51  54 CALM      30.11R
FORT KNOX      CLEAR     60  53  77 CALM      30.10R
$$

KYZ035>037-039>044-047>052-055>060-089>105-280400-
NORTHEAST KENTUCKY

CITY           SKY/WX    TMP DP  RH WIND       PRES   REMARKS
LEXINGTON      CLEAR     62  50  64 CALM      30.13R
COVINGTON      PTCLDY    63  51  65 CALM      30.12R
FRANKFORT      CLEAR     60  50  69 CALM      30.11R
$$

KYZ054-064>069-076>088-106>120-280400-
SOUTHEAST KENTUCKY

CITY           SKY/WX    TMP DP  RH WIND       PRES   REMARKS
JACKSON        CLEAR     63  47  55 CALM      30.15R
LONDON         CLEAR     61  54  77 CALM      30.14R
SOMERSET       CLEAR     59  54  82 CALM      30.15R
MIDDLESBORO    CLEAR     60  52  75 CALM      30.16R
MONTICELLO     NOT AVBL
$$





USA.gov is the U.S. government's official web portal to all federal, state and local government web resources and services.